• In Netherlands
  • List of Countries
  • For 7 days
  • Water Temperature
  • Satellite Maps
  • Weather Map
  • Weather Widgets
  • user-avatar
    Login

    Hourly Weather Canillo

    Today, 29 June, Thursday

    Time Temperature Precipitation Wind Pressure Humidity
    00:00 +6°C° 0.4 mm 1 mps 612 mmHg 90%
    01:00 +6°C° 0 mm 1 mps 612 mmHg 91%
    02:00 +5°C° 0 mm 2 mps 612 mmHg 92%
    03:00 +4°C° 0 mm 2 mps 612 mmHg 92%
    04:00 +6°C° 0 mm 1 mps 612 mmHg 90%
    05:00 +7°C° 0 mm 1 mps 613 mmHg 87%
    06:00 +7°C° 0 mm 1 mps 613 mmHg 85%
    07:00 +8°C° 0.1 mm 1 mps 614 mmHg 78%
    08:00 +8°C° 0.1 mm 2 mps 615 mmHg 72%
    09:00 +10°C° 0.1 mm 2 mps 615 mmHg 65%
    10:00 +10°C° 0.3 mm 3 mps 616 mmHg 62%
    11:00 +11°C° 0.3 mm 3 mps 616 mmHg 59%
    12:00 +11°C° 0.3 mm 3 mps 616 mmHg 55%
    13:00 +11°C° 0.6 mm 4 mps 616 mmHg 56%
    14:00 +11°C° 0.6 mm 4 mps 616 mmHg 56%
    15:00 +11°C° 0.6 mm 4 mps 616 mmHg 56%
    16:00 +11°C° 0.6 mm 3 mps 615 mmHg 59%
    17:00 +10°C° 0.6 mm 3 mps 615 mmHg 62%
    18:00 +9°C° 0.6 mm 2 mps 615 mmHg 66%
    19:00 +7°C° 0.3 mm 2 mps 615 mmHg 73%
    20:00 +6°C° 0.3 mm 1 mps 614 mmHg 79%
    21:00 +4°C° 0.3 mm 1 mps 614 mmHg 86%
    22:00 +3°C° 0 mm 1 mps 614 mmHg 87%
    23:00 +3°C° 0 mm 1 mps 614 mmHg 88%

    Tomorrow, 30 June, Friday

    Time Temperature Precipitation Wind Pressure Humidity
    00:00 +2°C° 0 mm 1 mps 613 mmHg 89%
    01:00 +2°C° 0 mm 1 mps 613 mmHg 90%
    02:00 +2°C° 0 mm 1 mps 613 mmHg 90%
    03:00 +1°C° 0 mm 1 mps 613 mmHg 90%
    04:00 +3°C° 0 mm 1 mps 614 mmHg 86%
    05:00 +4°C° 0 mm 1 mps 614 mmHg 82%
    06:00 +6°C° 0 mm 1 mps 615 mmHg 78%
    07:00 +8°C° 0 mm 1 mps 616 mmHg 66%
    08:00 +9°C° 0 mm 2 mps 617 mmHg 55%
    09:00 +12°C° 0 mm 2 mps 619 mmHg 43%
    10:00 +12°C° 0.1 mm 2 mps 619 mmHg 45%
    11:00 +13°C° 0.1 mm 2 mps 619 mmHg 46%
    12:00 +13°C° 0.1 mm 2 mps 619 mmHg 48%
    13:00 +12°C° 0.7 mm 3 mps 619 mmHg 55%
    14:00 +11°C° 0.7 mm 3 mps 619 mmHg 61%
    15:00 +10°C° 0.7 mm 3 mps 618 mmHg 68%
    16:00 +10°C° 0.5 mm 3 mps 618 mmHg 71%
    17:00 +9°C° 0.5 mm 3 mps 618 mmHg 73%
    18:00 +9°C° 0.5 mm 2 mps 618 mmHg 75%
    19:00 +7°C° 0.1 mm 2 mps 618 mmHg 80%
    20:00 +6°C° 0.1 mm 2 mps 618 mmHg 85%
    21:00 +4°C° 0.1 mm 2 mps 618 mmHg 90%
    22:00 +4°C° 0 mm 2 mps 618 mmHg 90%
    23:00 +3°C° 0 mm 2 mps 618 mmHg 90%

    Day after tomorrow, 1 July, Saturday

    Time Temperature Precipitation Wind Pressure Humidity
    00:00 +4°C° 0 mm 1 mps 618 mmHg 89%
    01:00 +4°C° 0 mm 1 mps 618 mmHg 89%
    02:00 +4°C° 0 mm 1 mps 618 mmHg 88%
    03:00 +4°C° 0 mm 1 mps 618 mmHg 87%
    04:00 +5°C° 0 mm 1 mps 618 mmHg 85%
    05:00 +6°C° 0 mm 1 mps 619 mmHg 83%
    06:00 +6°C° 0 mm 1 mps 619 mmHg 81%
    07:00 +8°C° 0.1 mm 1 mps 620 mmHg 76%
    08:00 +9°C° 0.1 mm 1 mps 620 mmHg 70%
    09:00 +9°C° 0.1 mm 2 mps 621 mmHg 65%
    10:00 +10°C° 0.5 mm 2 mps 621 mmHg 67%
    11:00 +10°C° 0.5 mm 2 mps 621 mmHg 68%
    12:00 +11°C° 0.5 mm 3 mps 621 mmHg 69%
    13:00 +11°C° 0.8 mm 3 mps 621 mmHg 71%
    14:00 +11°C° 0.8 mm 3 mps 621 mmHg 72%
    15:00 +11°C° 0.8 mm 4 mps 621 mmHg 73%
    16:00 +11°C° 0.3 mm 3 mps 622 mmHg 74%
    17:00 +10°C° 0.3 mm 3 mps 622 mmHg 75%
    18:00 +10°C° 0.3 mm 3 mps 622 mmHg 76%
    19:00 +9°C° 0.2 mm 3 mps 622 mmHg 80%
    20:00 +8°C° 0.2 mm 3 mps 622 mmHg 83%
    21:00 +7°C° 0.2 mm 3 mps 622 mmHg 87%
    22:00 +7°C° 0.3 mm 3 mps 622 mmHg 88%
    23:00 +7°C° 0.3 mm 3 mps 622 mmHg 88%

    2 July, Sunday

    Time Temperature Precipitation Wind Pressure Humidity
    00:00 +7°C° 0.3 mm 3 mps 622 mmHg 89%
    01:00 +5°C° 0.2 mm 3 mps 622 mmHg 89%
    02:00 +5°C° 0.2 mm 3 mps 622 mmHg 90%
    03:00 +5°C° 0.2 mm 3 mps 622 mmHg 91%
    04:00 +5°C° 0.1 mm 3 mps 623 mmHg 89%
    05:00 +7°C° 0.1 mm 3 mps 623 mmHg 87%
    06:00 +7°C° 0.1 mm 3 mps 623 mmHg 84%
    07:00 +9°C° 0 mm 3 mps 624 mmHg 77%
    08:00 +11°C° 0 mm 3 mps 625 mmHg 70%
    09:00 +12°C° 0 mm 3 mps 626 mmHg 63%
    10:00 +14°C° 0 mm 3 mps 626 mmHg 56%
    11:00 +16°C° 0 mm 3 mps 627 mmHg 49%
    12:00 +18°C° 0 mm 3 mps 627 mmHg 42%
    13:00 +18°C° 0 mm 3 mps 627 mmHg 41%
    14:00 +18°C° 0 mm 3 mps 627 mmHg 41%
    15:00 +18°C° 0 mm 4 mps 627 mmHg 40%
    16:00 +17°C° 0 mm 3 mps 627 mmHg 47%
    17:00 +16°C° 0 mm 3 mps 626 mmHg 53%
    18:00 +14°C° 0 mm 3 mps 626 mmHg 60%
    19:00 +12°C° 0 mm 3 mps 625 mmHg 69%
    20:00 +10°C° 0 mm 3 mps 625 mmHg 79%
    21:00 +8°C° 0 mm 2 mps 624 mmHg 88%
    22:00 +7°C° 0 mm 2 mps 624 mmHg 88%
    23:00 +7°C° 0 mm 2 mps 624 mmHg 88%

    3 July, Monday

    Time Temperature Precipitation Wind Pressure Humidity
    00:00 +7°C° 0 mm 2 mps 624 mmHg 89%
    01:00 +7°C° 0 mm 2 mps 624 mmHg 88%
    02:00 +6°C° 0 mm 2 mps 623 mmHg 88%
    03:00 +6°C° 0 mm 2 mps 623 mmHg 87%
    04:00 +7°C° 0 mm 2 mps 623 mmHg 84%
    05:00 +8°C° 0 mm 2 mps 624 mmHg 81%
    06:00 +9°C° 0 mm 2 mps 624 mmHg 78%
    07:00 +12°C° 0 mm 2 mps 625 mmHg 68%
    08:00 +15°C° 0 mm 2 mps 626 mmHg 59%
    09:00 +17°C° 0 mm 2 mps 627 mmHg 50%
    10:00 +19°C° 0 mm 2 mps 627 mmHg 47%
    11:00 +20°C° 0 mm 2 mps 627 mmHg 44%
    12:00 +21°C° 0 mm 2 mps 628 mmHg 40%
    13:00 +21°C° 0 mm 2 mps 627 mmHg 41%
    14:00 +23°C° 0 mm 2 mps 627 mmHg 42%
    15:00 +23°C° 0 mm 2 mps 627 mmHg 43%
    16:00 +20°C° 0 mm 2 mps 626 mmHg 49%
    17:00 +20°C° 0 mm 1 mps 625 mmHg 54%
    18:00 +19°C° 0 mm 1 mps 625 mmHg 60%
    19:00 +15°C° 0 mm 1 mps 624 mmHg 70%
    20:00 +12°C° 0 mm 1 mps 623 mmHg 80%
    21:00 +10°C° 0 mm 1 mps 622 mmHg 90%
    22:00 +9°C° 0 mm 1 mps 622 mmHg 90%
    23:00 +9°C° 0 mm 1 mps 621 mmHg 91%

    4 July, Tuesday

    Time Temperature Precipitation Wind Pressure Humidity
    00:00 +7°C° 0 mm 0 mps 621 mmHg 91%
    01:00 +7°C° 0 mm 0 mps 621 mmHg 91%
    02:00 +7°C° 0 mm 0 mps 620 mmHg 91%
    03:00 +6°C° 0 mm 0 mps 620 mmHg 90%
    04:00 +9°C° 0 mm 0 mps 621 mmHg 85%
    05:00 +11°C° 0 mm 0 mps 622 mmHg 80%
    06:00 +13°C° 0 mm 0 mps 623 mmHg 74%
    07:00 +16°C° 0 mm 1 mps 623 mmHg 65%
    08:00 +19°C° 0 mm 1 mps 624 mmHg 55%
    09:00 +21°C° 0 mm 1 mps 625 mmHg 46%
    10:00 +21°C° 0 mm 2 mps 625 mmHg 43%
    11:00 +23°C° 0 mm 2 mps 625 mmHg 41%
    12:00 +24°C° 0 mm 2 mps 625 mmHg 38%
    13:00 +24°C° 0 mm 2 mps 625 mmHg 38%
    14:00 +25°C° 0 mm 2 mps 625 mmHg 38%
    15:00 +25°C° 0 mm 2 mps 624 mmHg 39%
    16:00 +24°C° 0 mm 2 mps 624 mmHg 44%
    17:00 +23°C° 0 mm 2 mps 623 mmHg 49%
    18:00 +21°C° 0 mm 2 mps 623 mmHg 54%
    19:00 +19°C° 0 mm 1 mps 622 mmHg 64%
    20:00 +15°C° 0 mm 1 mps 621 mmHg 73%
    21:00 +13°C° 0 mm 1 mps 620 mmHg 82%
    22:00 +12°C° 0 mm 1 mps 620 mmHg 82%
    23:00 +12°C° 0 mm 1 mps 619 mmHg 81%
    Show more